"Period start","avg(HW err(1)/warn(2) (#))","avg(Visibility (m))","avg(Weather code (#))","avg(Precip intensity (mm/h))","min(HW err(1)/warn(2) (#))","max(HW err(1)/warn(2) (#))","std(HW err(1)/warn(2) (#))","med(HW err(1)/warn(2) (#))","min(Visibility (m))","max(Visibility (m))","std(Visibility (m))","med(Visibility (m))","min(Weather code (#))","max(Weather code (#))","std(Weather code (#))","med(Weather code (#))","min(Precip intensity (mm/h))","max(Precip intensity (mm/h))","std(Precip intensity (mm/h))","med(Precip intensity (mm/h))"
2016-08-21 00:00:00,2,41025,0,0.00,2,2,0,2,28901,50000,5862,40562,0,0,0,0,0.00,0.00,0.00,0.00
2016-08-21 00:10:00,2,33244,0,0.00,2,2,0,2,17788,48614,9701,35742,0,0,0,0,0.00,0.00,0.00,0.00
2016-08-21 00:20:00,2,37572,0,0.00,2,2,0,2,25319,49888,8190,40437,0,0,0,0,0.00,0.00,0.00,0.00
2016-08-21 00:30:00,2,35015,0,0.00,2,2,0,2,25535,50000,7243,36086,0,0,0,0,0.00,0.00,0.00,0.00
2016-08-21 00:40:00,2,43000,0,0.00,2,2,0,2,27757,50000,7959,46118,0,0,0,0,0.00,0.00,0.00,0.00
2016-08-21 00:50:00,2,39864,0,0.00,2,2,0,2,27316,50000,8870,37040,0,0,0,0,0.00,0.00,0.00,0.00
2016-08-21 01:00:00,2,32982,0,0.00,2,2,0,2,24106,41524,5456,31526,0,0,0,0,0.00,0.00,0.00,0.00
2016-08-21 01:10:00,2,37511,0,0.00,2,2,0,2,20666,48578,9920,43308,0,0,0,0,0.00,0.00,0.00,0.00
2016-08-21 01:20:00,2,32087,0,0.00,2,2,0,2,26136,37680,3707,32300,0,0,0,0,0.00,0.00,0.00,0.00
2016-08-21 01:30:00,2,36722,0,0.00,2,2,0,2,26484,50000,7631,35362,0,0,0,0,0.00,0.00,0.00,0.00
2016-08-21 01:40:00,2,43262,0,0.00,2,2,0,2,28966,50000,7050,46210,0,0,0,0,0.00,0.00,0.00,0.00
2016-08-21 01:50:00,2,42105,0,0.00,2,2,0,2,30898,50000,6649,41701,0,0,0,0,0.00,0.00,0.00,0.00
2016-08-21 02:00:00,2,34010,0,0.00,2,2,0,2,10751,50000,12383,30881,0,0,0,0,0.00,0.00,0.00,0.00
2016-08-21 02:10:00,2,42656,0,0.00,2,2,0,2,34891,50000,5208,41362,0,0,0,0,0.00,0.00,0.00,0.00
2016-08-21 02:20:00,2,38132,0,0.00,2,2,0,2,31462,46425,5988,35796,0,0,0,0,0.00,0.00,0.00,0.00
2016-08-21 02:30:00,2,37825,0,0.00,2,2,0,2,23827,45946,6198,38270,0,0,0,0,0.00,0.00,0.00,0.00
2016-08-21 02:40:00,1,41525,0,0.00,0,2,1,0,33168,50000,6715,42676,0,0,0,0,0.00,0.00,0.00,0.00
2016-08-21 02:50:00,1,46318,0,0.00,0,2,1,0,40275,50000,4007,48756,0,0,0,0,0.00,0.00,0.00,0.00
2016-08-21 03:00:00,1,41054,0,0.00,0,2,1,2,28253,50000,7677,43706,0,0,0,0,0.00,0.00,0.00,0.00
2016-08-21 03:10:00,2,39160,0,0.00,0,2,1,2,28521,50000,7661,37784,0,0,0,0,0.00,0.00,0.00,0.00
2016-08-21 03:20:00,0,43652,0,0.00,0,0,0,0,33797,50000,6773,47254,0,0,0,0,0.00,0.00,0.00,0.00
2016-08-21 03:30:00,0,48598,0,0.00,0,0,0,0,46005,50000,1582,49230,0,0,0,0,0.00,0.00,0.00,0.00
2016-08-21 03:40:00,1,42853,0,0.00,0,2,1,2,32384,50000,5748,41838,0,0,0,0,0.00,0.00,0.00,0.00
2016-08-21 03:50:00,2,32693,0,0.00,0,2,1,2,9624,50000,13145,35352,0,0,0,0,0.00,0.00,0.00,0.00
2016-08-21 04:00:00,2,43513,0,0.00,0,2,1,2,29383,50000,6956,44947,0,0,0,0,0.00,0.00,0.00,0.00
2016-08-21 04:10:00,0,46561,0,0.00,0,2,1,0,38048,50000,4140,48390,0,0,0,0,0.00,0.00,0.00,0.00
2016-08-21 04:20:00,0,45813,0,0.00,0,0,0,0,37934,50000,3971,46285,0,0,0,0,0.00,0.00,0.00,0.00
2016-08-21 04:30:00,0,47365,0,0.00,0,2,1,0,36981,50000,4194,49912,0,0,0,0,0.00,0.00,0.00,0.00
2016-08-21 04:40:00,0,41820,0,0.00,0,0,0,0,28669,50000,7781,42770,0,0,0,0,0.00,0.00,0.00,0.00
2016-08-21 04:50:00,0,46781,0,0.00,0,0,0,0,41633,50000,3464,48620,0,0,0,0,0.00,0.00,0.00,0.00
2016-08-21 05:00:00,0,46794,0,0.00,0,0,0,0,37954,50000,4505,50000,0,0,0,0,0.00,0.00,0.00,0.00
2016-08-21 05:10:00,0,46418,0,0.00,0,0,0,0,39302,50000,3593,47650,0,0,0,0,0.00,0.00,0.00,0.00
2016-08-21 05:20:00,0,44746,0,0.00,0,0,0,0,29490,50000,6618,47596,0,0,0,0,0.00,0.00,0.00,0.00
2016-08-21 05:30:00,0,48532,0,0.00,0,0,0,0,41619,50000,2490,50000,0,0,0,0,0.00,0.00,0.00,0.00
2016-08-21 05:40:00,0,46162,0,0.00,0,0,0,0,38281,50000,4085,47382,0,0,0,0,0.00,0.00,0.00,0.00
2016-08-21 05:50:00,0,45614,0,0.00,0,0,0,0,40278,50000,3294,46780,0,0,0,0,0.00,0.00,0.00,0.00
2016-08-21 06:00:00,0,49204,0,0.00,0,0,0,0,45348,50000,1474,50000,0,0,0,0,0.00,0.00,0.00,0.00
2016-08-21 06:10:00,0,48902,0,0.00,0,0,0,0,44651,50000,1784,50000,0,0,0,0,0.00,0.00,0.00,0.00
2016-08-21 06:20:00,0,47216,0,0.00,0,0,0,0,39478,50000,3477,48800,0,0,0,0,0.00,0.00,0.00,0.00
2016-08-21 06:30:00,0,48105,0,0.00,0,0,0,0,43229,50000,2131,48634,0,0,0,0,0.00,0.00,0.00,0.00
2016-08-21 06:40:00,0,49088,0,0.00,0,0,0,0,44483,50000,1873,50000,0,0,0,0,0.00,0.00,0.00,0.00
2016-08-21 06:50:00,0,48730,0,0.00,0,0,0,0,43569,50000,2139,50000,0,0,0,0,0.00,0.00,0.00,0.00
2016-08-21 07:00:00,0,50000,0,0.00,0,0,0,0,50000,50000,0,50000,0,0,0,0,0.00,0.00,0.00,0.00
2016-08-21 07:10:00,0,49508,0,0.00,0,0,0,0,47365,50000,912,50000,0,0,0,0,0.00,0.00,0.00,0.00
2016-08-21 07:20:00,0,46110,0,0.00,0,0,0,0,28010,50000,7240,50000,0,0,0,0,0.00,0.00,0.00,0.00
2016-08-21 07:30:00,0,48914,0,0.00,0,0,0,0,42260,50000,2405,50000,0,0,0,0,0.00,0.00,0.00,0.00
2016-08-21 07:40:00,0,46660,0,0.00,0,0,0,0,31089,50000,6292,50000,0,0,0,0,0.00,0.00,0.00,0.00
2016-08-21 07:50:00,0,42377,0,0.00,0,0,0,0,17685,50000,10111,46493,0,0,0,0,0.00,0.00,0.00,0.00
2016-08-21 08:00:00,0,43291,0,0.00,0,0,0,0,18907,50000,11326,50000,0,0,0,0,0.00,0.00,0.00,0.00
2016-08-21 08:10:00,0,49658,0,0.00,0,0,0,0,47075,50000,874,50000,0,0,0,0,0.00,0.00,0.00,0.00
2016-08-21 08:20:00,0,49936,0,0.00,0,0,0,0,49357,50000,193,50000,0,0,0,0,0.00,0.00,0.00,0.00
2016-08-21 08:30:00,0,50000,0,0.00,0,0,0,0,50000,50000,0,50000,0,0,0,0,0.00,0.00,0.00,0.00
2016-08-21 08:40:00,0,50000,0,0.00,0,0,0,0,50000,50000,0,50000,0,0,0,0,0.00,0.00,0.00,0.00
2016-08-21 08:50:00,0,50000,0,0.00,0,0,0,0,50000,50000,0,50000,0,0,0,0,0.00,0.00,0.00,0.00
2016-08-21 09:00:00,0,50000,0,0.00,0,0,0,0,50000,50000,0,50000,0,0,0,0,0.00,0.00,0.00,0.00
2016-08-21 09:10:00,0,50000,0,0.00,0,0,0,0,50000,50000,0,50000,0,0,0,0,0.00,0.00,0.00,0.00
2016-08-21 09:20:00,0,50000,0,0.00,0,0,0,0,50000,50000,0,50000,0,0,0,0,0.00,0.00,0.00,0.00
2016-08-21 09:30:00,0,50000,0,0.00,0,0,0,0,50000,50000,0,50000,0,0,0,0,0.00,0.00,0.00,0.00
2016-08-21 09:40:00,0,38330,0,0.00,0,0,0,0,12935,50000,14500,47848,0,0,0,0,0.00,0.00,0.00,0.00
2016-08-21 09:50:00,0,49991,0,0.00,0,0,0,0,49911,50000,27,50000,0,0,0,0,0.00,0.00,0.00,0.00
2016-08-21 10:00:00,0,50000,0,0.00,0,0,0,0,50000,50000,0,50000,0,0,0,0,0.00,0.00,0.00,0.00
2016-08-21 10:10:00,0,49987,0,0.00,0,0,0,0,49874,50000,38,50000,0,0,0,0,0.00,0.00,0.00,0.00
2016-08-21 10:20:00,0,48213,0,0.00,0,0,0,0,37044,50000,3936,50000,0,0,0,0,0.00,0.00,0.00,0.00
2016-08-21 10:30:00,0,49923,0,0.00,0,0,0,0,49230,50000,231,50000,0,0,0,0,0.00,0.00,0.00,0.00
2016-08-21 10:40:00,0,50000,0,0.00,0,0,0,0,50000,50000,0,50000,0,0,0,0,0.00,0.00,0.00,0.00
2016-08-21 10:50:00,0,42390,0,0.00,0,0,0,0,18315,50000,11590,50000,0,0,0,0,0.00,0.00,0.00,0.00
2016-08-21 11:00:00,0,50000,0,0.00,0,0,0,0,50000,50000,0,50000,0,0,0,0,0.00,0.00,0.00,0.00
2016-08-21 11:10:00,0,49111,0,0.00,0,0,0,0,41112,50000,2666,50000,0,0,0,0,0.00,0.00,0.00,0.00
2016-08-21 11:20:00,0,41454,43,0.11,0,0,0,0,35830,48965,4282,41588,0,61,22,51,0.00,0.25,0.09,0.10
2016-08-21 11:30:00,0,36573,51,0.15,0,0,0,0,30137,46403,4583,36308,51,51,0,51,0.05,0.30,0.06,0.15
2016-08-21 11:40:00,0,41849,17,0.02,0,0,0,0,35523,49676,4727,42386,0,61,27,0,0.00,0.05,0.02,0.00
2016-08-21 11:50:00,0,45160,55,1.14,0,0,0,0,36481,50000,4915,46814,51,61,5,51,0.35,3.30,0.85,0.82
2016-08-21 12:00:00,0,33931,61,1.15,0,0,0,0,27348,40882,4298,33514,61,61,0,61,0.45,2.85,0.77,0.88
2016-08-21 12:10:00,1,23568,61,1.59,0,2,1,2,19202,34386,4362,22100,61,61,0,61,0.70,2.85,0.61,1.48
2016-08-21 12:20:00,2,34292,57,0.86,2,2,0,2,25941,42113,4643,35360,51,61,5,61,0.15,3.10,0.99,0.45
2016-08-21 12:30:00,2,34129,56,0.35,0,2,1,2,29236,38855,2847,34965,51,61,5,56,0.20,0.75,0.18,0.30
2016-08-21 12:40:00,2,28294,52,0.47,0,2,1,2,24492,33560,2677,27962,51,61,3,51,0.10,1.60,0.40,0.35
2016-08-21 12:50:00,1,30430,54,0.29,0,2,1,1,25941,37247,3784,30160,51,61,5,51,0.20,0.35,0.05,0.30
2016-08-21 13:00:00,0,31647,51,0.22,0,0,0,0,24678,41011,4584,30558,51,51,0,51,0.05,0.40,0.09,0.23
2016-08-21 13:10:00,0,46006,59,0.10,0,0,0,0,39688,50000,3391,46398,51,61,4,61,0.00,0.20,0.05,0.10
2016-08-21 13:20:00,0,49499,24,0.01,0,0,0,0,47242,50000,932,50000,0,61,30,0,0.00,0.05,0.02,0.00
2016-08-21 13:30:00,0,49326,0,0.00,0,0,0,0,45800,50000,1268,50000,0,0,0,0,0.00,0.00,0.00,0.00
2016-08-21 13:40:00,0,48718,0,0.00,0,0,0,0,45804,50000,1496,49399,0,0,0,0,0.00,0.00,0.00,0.00
2016-08-21 13:50:00,0,45633,0,0.00,0,0,0,0,39841,50000,3393,45998,0,0,0,0,0.00,0.00,0.00,0.00
2016-08-21 14:00:00,0,36782,28,0.10,0,0,0,0,26259,43345,5180,36924,0,61,29,26,0.00,0.30,0.11,0.05
2016-08-21 14:10:00,0,30308,52,0.47,0,2,1,0,25038,36077,3685,29862,51,52,0,52,0.25,0.90,0.18,0.42
2016-08-21 14:20:00,2,32358,53,0.12,0,2,1,2,26050,37452,4186,33222,51,61,4,51,0.05,0.25,0.07,0.08
2016-08-21 14:30:00,2,24477,56,0.42,0,2,1,2,12843,39351,9035,24570,51,61,5,56,0.00,0.70,0.17,0.45
2016-08-21 14:40:00,2,18425,51,0.49,2,2,0,2,12984,24188,3722,18352,51,52,0,51,0.20,0.90,0.25,0.43
2016-08-21 14:50:00,2,14200,53,1.18,0,2,1,2,8848,22267,4740,12089,52,61,3,52,0.75,2.45,0.45,1.05
2016-08-21 15:00:00,2,11958,61,1.27,2,2,0,2,9608,14260,1423,12106,61,61,0,61,0.80,2.15,0.49,1.10
2016-08-21 15:10:00,2,12893,55,1.12,2,2,0,2,10185,17745,2324,12564,52,61,4,52,0.60,2.10,0.45,1.02
2016-08-21 15:20:00,2,14428,54,0.72,2,2,0,2,11455,19175,2394,14016,51,61,4,52,0.30,2.35,0.60,0.53
2016-08-21 15:30:00,2,20463,51,0.17,0,2,1,2,16468,23933,2214,20615,51,51,0,51,0.05,0.45,0.12,0.15
2016-08-21 15:40:00,2,28486,54,0.07,2,2,0,2,22291,38371,4900,26877,51,61,5,51,0.00,0.10,0.03,0.10
2016-08-21 15:50:00,2,34799,57,0.07,2,2,0,2,24122,49750,7650,31380,51,61,5,61,0.00,0.20,0.06,0.05
2016-08-21 16:00:00,1,43474,18,0.00,0,2,1,2,29116,50000,8578,49104,0,61,28,0,0.00,0.00,0.00,0.00
2016-08-21 16:10:00,0,27703,0,0.00,0,0,0,0,23217,33351,3061,28156,0,0,0,0,0.00,0.00,0.00,0.00
2016-08-21 16:20:00,0,38021,33,0.10,0,0,0,0,31706,50000,5366,38458,0,61,27,51,0.00,0.40,0.12,0.10
2016-08-21 16:30:00,0,37767,51,0.29,0,0,0,0,22704,50000,10682,42295,51,52,0,51,0.15,0.50,0.11,0.28
2016-08-21 16:40:00,2,15695,55,1.11,0,2,1,2,11379,23299,3142,15381,52,61,4,52,0.75,1.60,0.29,1.08
2016-08-21 16:50:00,2,12428,52,0.85,2,2,0,2,10096,20664,3050,10910,52,52,0,52,0.35,1.40,0.32,0.88
2016-08-21 17:00:00,2,12632,56,1.00,2,2,0,2,7183,19658,3758,12118,51,61,5,56,0.30,4.90,1.31,0.65
2016-08-21 17:10:00,2,11353,38,0.10,2,2,0,2,8246,18552,2974,10777,0,61,25,51,0.00,0.25,0.10,0.05
2016-08-21 17:20:00,1,12600,22,0.12,0,2,1,2,7759,15757,2681,13466,0,61,28,0,0.00,0.55,0.18,0.00
2016-08-21 17:30:00,2,10785,52,1.05,0,2,1,2,8393,18805,3060,9472,52,52,0,52,0.85,1.45,0.17,1.02
2016-08-21 17:40:00,2,5258,52,1.36,0,2,1,2,3670,11608,2299,4293,52,52,0,52,0.60,2.35,0.55,1.25
2016-08-21 17:50:00,2,4763,51,0.49,2,2,0,2,3587,5992,746,4650,51,52,0,51,0.25,0.70,0.15,0.50
2016-08-21 18:00:00,2,6123,51,0.53,2,2,0,2,5398,7175,467,6061,51,52,0,51,0.35,0.75,0.15,0.50
2016-08-21 18:10:00,2,7730,51,0.24,0,2,1,2,5620,9024,1004,7662,51,52,0,51,0.00,0.70,0.22,0.20
2016-08-21 18:20:00,2,18075,47,0.04,2,2,0,2,9768,28516,6067,17571,0,61,21,56,0.00,0.10,0.04,0.03
2016-08-21 18:30:00,2,17604,0,0.00,0,2,1,2,8572,29249,6612,16944,0,0,0,0,0.00,0.00,0.00,0.00
2016-08-21 18:40:00,1,5418,7,0.00,0,2,1,1,3692,6526,905,5664,0,10,5,10,0.00,0.00,0.00,0.00
2016-08-21 18:50:00,1,5444,10,0.00,0,2,1,0,4155,8195,1130,5100,10,10,0,10,0.00,0.00,0.00,0.00
2016-08-21 19:00:00,2,18012,10,0.00,0,2,1,2,7822,34765,8824,15161,10,10,0,10,0.00,0.00,0.00,0.00
2016-08-21 19:10:00,2,12042,43,0.42,0,2,1,2,6477,16423,4044,12509,0,61,22,52,0.00,1.20,0.38,0.35
2016-08-21 19:20:00,2,6833,55,1.32,2,2,0,2,5415,7720,677,6961,51,61,5,52,0.35,3.60,0.98,0.82
2016-08-21 19:30:00,2,9034,52,0.42,2,2,0,2,6633,12345,1808,8650,51,61,3,52,0.05,1.05,0.35,0.32
2016-08-21 19:40:00,2,24243,53,0.39,2,2,0,2,15753,30702,4023,24810,51,61,4,52,0.00,0.95,0.33,0.33
2016-08-21 19:50:00,2,18434,51,0.12,2,2,0,2,13326,22358,2873,18862,41,61,6,51,0.00,0.35,0.11,0.12
2016-08-21 20:00:00,2,34076,0,0.00,2,2,0,2,17199,46082,8196,34864,0,0,0,0,0.00,0.00,0.00,0.00
2016-08-21 20:10:00,2,48764,0,0.00,2,2,0,2,43902,50000,2047,50000,0,0,0,0,0.00,0.00,0.00,0.00
2016-08-21 20:20:00,0,48486,0,0.00,0,2,1,0,46014,50000,1507,48948,0,0,0,0,0.00,0.00,0.00,0.00
2016-08-21 20:30:00,0,48157,0,0.00,0,0,0,0,44058,50000,2302,49599,0,0,0,0,0.00,0.00,0.00,0.00
2016-08-21 20:40:00,0,49907,0,0.00,0,0,0,0,49069,50000,279,50000,0,0,0,0,0.00,0.00,0.00,0.00
2016-08-21 20:50:00,0,49933,0,0.00,0,0,0,0,49333,50000,200,50000,0,0,0,0,0.00,0.00,0.00,0.00
2016-08-21 21:00:00,0,50000,0,0.00,0,0,0,0,50000,50000,0,50000,0,0,0,0,0.00,0.00,0.00,0.00
2016-08-21 21:10:00,0,49933,0,0.00,0,0,0,0,49334,50000,200,50000,0,0,0,0,0.00,0.00,0.00,0.00
2016-08-21 21:20:00,0,50000,0,0.00,0,0,0,0,50000,50000,0,50000,0,0,0,0,0.00,0.00,0.00,0.00
2016-08-21 21:30:00,0,50000,0,0.00,0,0,0,0,50000,50000,0,50000,0,0,0,0,0.00,0.00,0.00,0.00
2016-08-21 21:40:00,0,49525,0,0.00,0,0,0,0,47361,50000,958,50000,0,0,0,0,0.00,0.00,0.00,0.00
2016-08-21 21:50:00,0,50000,0,0.00,0,0,0,0,50000,50000,0,50000,0,0,0,0,0.00,0.00,0.00,0.00
2016-08-21 22:00:00,0,50000,0,0.00,0,0,0,0,50000,50000,0,50000,0,0,0,0,0.00,0.00,0.00,0.00
2016-08-21 22:10:00,0,49997,0,0.00,0,0,0,0,49966,50000,10,50000,0,0,0,0,0.00,0.00,0.00,0.00
2016-08-21 22:20:00,0,50000,0,0.00,0,0,0,0,50000,50000,0,50000,0,0,0,0,0.00,0.00,0.00,0.00
2016-08-21 22:30:00,0,49978,0,0.00,0,0,0,0,49785,50000,64,50000,0,0,0,0,0.00,0.00,0.00,0.00
2016-08-21 22:40:00,0,48246,0,0.00,0,0,0,0,40252,50000,3003,50000,0,0,0,0,0.00,0.00,0.00,0.00
2016-08-21 22:50:00,0,50000,0,0.00,0,0,0,0,50000,50000,0,50000,0,0,0,0,0.00,0.00,0.00,0.00
2016-08-21 23:00:00,0,49947,0,0.00,0,0,0,0,49468,50000,160,50000,0,0,0,0,0.00,0.00,0.00,0.00
2016-08-21 23:10:00,0,49220,0,0.00,0,0,0,0,43940,50000,1831,50000,0,0,0,0,0.00,0.00,0.00,0.00
2016-08-21 23:20:00,0,47807,0,0.00,0,0,0,0,42752,50000,2451,49002,0,0,0,0,0.00,0.00,0.00,0.00
2016-08-21 23:30:00,0,44835,38,0.04,0,0,0,0,36888,50000,5016,47118,0,61,25,51,0.00,0.15,0.04,0.05
2016-08-21 23:40:00,0,20386,0,0.00,0,0,0,0,6548,45523,16286,9364,0,0,0,0,0.00,0.00,0.00,0.00
2016-08-21 23:50:00,0,4647,53,0.39,0,0,0,0,2931,8218,1594,4037,51,61,4,51,0.10,1.05,0.26,0.35
